When you browse on this site, cookies collect data to enhance your experience and personalize the content and advertising you see.
Visit our Privacy Policy to learn more. By continuing to use the site, you agree to this use of cookies and data.
  • In Hungary
  • List of Countries
  • For 7 days
  • Water Temperature
  • Weather Map
  • News
  • Weather Widgets
  • user-avatar
    Login

    Hourly Weather Krzewo

    Today, 18 August, Sunday

    Time Temperature Precipitation Wind Pressure Humidity
    00:00 +17°C° 0.1 mm 2 mps 749 mmHg 84%
    01:00 +17°C° 0 mm 2 mps 749 mmHg 84%
    02:00 +17°C° 0 mm 2 mps 749 mmHg 85%
    03:00 +16°C° 0 mm 2 mps 748 mmHg 85%
    04:00 +16°C° 0 mm 2 mps 748 mmHg 86%
    05:00 +17°C° 0 mm 2 mps 748 mmHg 84%
    06:00 +18°C° 0 mm 2 mps 748 mmHg 82%
    07:00 +19°C° 0 mm 2 mps 748 mmHg 79%
    08:00 +21°C° 0 mm 3 mps 748 mmHg 73%
    09:00 +22°C° 0 mm 3 mps 748 mmHg 67%
    10:00 +25°C° 0 mm 4 mps 748 mmHg 60%
    11:00 +26°C° 0 mm 4 mps 748 mmHg 57%
    12:00 +26°C° 0 mm 4 mps 748 mmHg 55%
    13:00 +27°C° 0 mm 4 mps 748 mmHg 52%
    14:00 +27°C° 0 mm 4 mps 748 mmHg 54%
    15:00 +27°C° 0 mm 4 mps 747 mmHg 56%
    16:00 +27°C° 0 mm 4 mps 747 mmHg 58%
    17:00 +26°C° 0 mm 4 mps 747 mmHg 61%
    18:00 +23°C° 0 mm 4 mps 747 mmHg 64%
    19:00 +22°C° 0 mm 3 mps 747 mmHg 68%
    20:00 +22°C° 0 mm 3 mps 747 mmHg 67%
    21:00 +21°C° 0 mm 3 mps 747 mmHg 67%
    22:00 +21°C° 0 mm 3 mps 747 mmHg 66%
    23:00 +20°C° 0 mm 3 mps 747 mmHg 71%

    Tomorrow, 19 August, Monday

    Time Temperature Precipitation Wind Pressure Humidity
    00:00 +20°C° 0 mm 3 mps 747 mmHg 75%
    01:00 +20°C° 0 mm 4 mps 747 mmHg 79%
    02:00 +19°C° 0 mm 3 mps 747 mmHg 83%
    03:00 +19°C° 0 mm 3 mps 747 mmHg 86%
    04:00 +19°C° 0 mm 3 mps 748 mmHg 90%
    05:00 +20°C° 0 mm 3 mps 748 mmHg 86%
    06:00 +21°C° 0 mm 3 mps 748 mmHg 82%
    07:00 +22°C° 0 mm 3 mps 749 mmHg 78%
    08:00 +24°C° 0 mm 2 mps 749 mmHg 76%
    09:00 +25°C° 0 mm 2 mps 750 mmHg 73%
    10:00 +26°C° 0 mm 2 mps 750 mmHg 70%
    11:00 +26°C° 0.1 mm 2 mps 750 mmHg 67%
    12:00 +27°C° 0.1 mm 2 mps 750 mmHg 63%
    13:00 +28°C° 0.1 mm 2 mps 750 mmHg 60%
    14:00 +27°C° 0.4 mm 2 mps 750 mmHg 65%
    15:00 +26°C° 0.4 mm 2 mps 750 mmHg 70%
    16:00 +25°C° 0.4 mm 2 mps 750 mmHg 74%
    17:00 +24°C° 2.3 mm 2 mps 751 mmHg 81%
    18:00 +21°C° 2.3 mm 2 mps 751 mmHg 88%
    19:00 +19°C° 2.3 mm 2 mps 751 mmHg 95%
    20:00 +20°C° 0 mm 1 mps 751 mmHg 94%
    21:00 +20°C° 0 mm 1 mps 752 mmHg 94%
    22:00 +19°C° 0 mm 1 mps 752 mmHg 94%
    23:00 +19°C° 0 mm 1 mps 753 mmHg 94%

    Day after tomorrow, 20 August, Tuesday

    Time Temperature Precipitation Wind Pressure Humidity
    00:00 +19°C° 0 mm 1 mps 753 mmHg 95%
    01:00 +18°C° 0 mm 1 mps 753 mmHg 96%
    02:00 +18°C° 0 mm 1 mps 753 mmHg 96%
    03:00 +18°C° 0 mm 1 mps 754 mmHg 96%
    04:00 +18°C° 0 mm 1 mps 754 mmHg 96%
    05:00 +19°C° 0 mm 1 mps 754 mmHg 93%
    06:00 +19°C° 0 mm 1 mps 755 mmHg 90%
    07:00 +20°C° 0 mm 1 mps 755 mmHg 87%
    08:00 +22°C° 0 mm 1 mps 755 mmHg 78%
    09:00 +23°C° 0 mm 1 mps 755 mmHg 70%
    10:00 +24°C° 0 mm 1 mps 756 mmHg 61%
    11:00 +25°C° 0 mm 1 mps 756 mmHg 56%
    12:00 +26°C° 0 mm 1 mps 756 mmHg 52%
    13:00 +26°C° 0 mm 2 mps 756 mmHg 47%
    14:00 +26°C° 0 mm 1 mps 756 mmHg 48%
    15:00 +26°C° 0 mm 1 mps 756 mmHg 49%
    16:00 +26°C° 0 mm 1 mps 755 mmHg 49%
    17:00 +24°C° 0 mm 1 mps 756 mmHg 53%
    18:00 +23°C° 0 mm 1 mps 756 mmHg 57%
    19:00 +21°C° 0 mm 1 mps 756 mmHg 61%
    20:00 +21°C° 0 mm 1 mps 756 mmHg 62%
    21:00 +20°C° 0 mm 2 mps 756 mmHg 63%
    22:00 +19°C° 0 mm 2 mps 756 mmHg 64%
    23:00 +19°C° 0 mm 2 mps 756 mmHg 65%

    21 August, Wednesday

    Time Temperature Precipitation Wind Pressure Humidity
    00:00 +19°C° 0 mm 2 mps 756 mmHg 67%
    01:00 +19°C° 0 mm 2 mps 756 mmHg 68%
    02:00 +18°C° 0 mm 2 mps 756 mmHg 69%
    03:00 +18°C° 0 mm 2 mps 756 mmHg 70%
    04:00 +18°C° 0 mm 3 mps 756 mmHg 71%
    05:00 +18°C° 0 mm 3 mps 756 mmHg 74%
    06:00 +19°C° 0 mm 4 mps 755 mmHg 77%
    07:00 +19°C° 0 mm 4 mps 755 mmHg 80%
    08:00 +19°C° 0.6 mm 5 mps 755 mmHg 83%
    09:00 +17°C° 0.6 mm 5 mps 755 mmHg 87%
    10:00 +17°C° 0.6 mm 6 mps 755 mmHg 91%
    11:00 +16°C° 3.5 mm 7 mps 755 mmHg 91%
    12:00 +15°C° 3.5 mm 7 mps 755 mmHg 92%
    13:00 +13°C° 3.5 mm 8 mps 755 mmHg 93%
    14:00 +14°C° 0.4 mm 7 mps 755 mmHg 92%
    15:00 +14°C° 0.4 mm 5 mps 755 mmHg 92%
    16:00 +14°C° 0.4 mm 4 mps 755 mmHg 92%
    17:00 +14°C° 0 mm 3 mps 756 mmHg 93%
    18:00 +14°C° 0 mm 3 mps 756 mmHg 93%
    19:00 +13°C° 0 mm 3 mps 757 mmHg 94%
    20:00 +13°C° 0 mm 3 mps 757 mmHg 95%
    21:00 +13°C° 0 mm 2 mps 758 mmHg 96%
    22:00 +13°C° 0 mm 2 mps 758 mmHg 96%
    23:00 +13°C° 0 mm 2 mps 758 mmHg 97%

    22 August, Thursday

    Time Temperature Precipitation Wind Pressure Humidity
    00:00 +13°C° 0 mm 2 mps 758 mmHg 97%
    01:00 +13°C° 0 mm 2 mps 759 mmHg 97%
    02:00 +12°C° 0 mm 2 mps 759 mmHg 97%
    03:00 +12°C° 0 mm 2 mps 758 mmHg 96%
    04:00 +10°C° 0 mm 2 mps 758 mmHg 96%
    05:00 +13°C° 0 mm 2 mps 759 mmHg 93%
    06:00 +14°C° 0 mm 2 mps 759 mmHg 90%
    07:00 +15°C° 0 mm 2 mps 759 mmHg 88%
    08:00 +16°C° 0 mm 2 mps 759 mmHg 80%
    09:00 +18°C° 0 mm 2 mps 759 mmHg 73%
    10:00 +19°C° 0 mm 2 mps 759 mmHg 65%
    11:00 +20°C° 0 mm 2 mps 759 mmHg 61%
    12:00 +21°C° 0 mm 2 mps 759 mmHg 57%
    13:00 +23°C° 0 mm 2 mps 758 mmHg 52%
    14:00 +23°C° 0 mm 2 mps 758 mmHg 53%
    15:00 +23°C° 0 mm 2 mps 758 mmHg 53%
    16:00 +23°C° 0 mm 2 mps 758 mmHg 53%
    17:00 +20°C° 0 mm 2 mps 758 mmHg 60%
    18:00 +18°C° 0 mm 2 mps 758 mmHg 66%
    19:00 +16°C° 0 mm 1 mps 758 mmHg 73%
    20:00 +16°C° 0 mm 2 mps 758 mmHg 76%
    21:00 +15°C° 0 mm 2 mps 759 mmHg 80%
    22:00 +14°C° 0 mm 2 mps 759 mmHg 84%
    23:00 +14°C° 0 mm 2 mps 759 mmHg 86%

    23 August, Friday

    Time Temperature Precipitation Wind Pressure Humidity
    00:00 +13°C° 0 mm 1 mps 759 mmHg 88%
    01:00 +13°C° 0 mm 1 mps 759 mmHg 90%
    02:00 +13°C° 0 mm 1 mps 759 mmHg 90%
    03:00 +12°C° 0 mm 1 mps 759 mmHg 90%
    04:00 +12°C° 0 mm 1 mps 759 mmHg 90%
    05:00 +13°C° 0 mm 1 mps 759 mmHg 86%
    06:00 +14°C° 0 mm 0 mps 759 mmHg 81%
    07:00 +15°C° 0 mm 0 mps 759 mmHg 77%
    08:00 +17°C° 0 mm 0 mps 759 mmHg 69%
    09:00 +20°C° 0 mm 1 mps 759 mmHg 61%
    10:00 +22°C° 0 mm 1 mps 759 mmHg 53%
    11:00 +21°C° 0 mm 2 mps 759 mmHg 50%
    12:00 +23°C° 0 mm 2 mps 759 mmHg 47%
    13:00 +24°C° 0 mm 2 mps 759 mmHg 45%
    14:00 +23°C° 0 mm 2 mps 759 mmHg 48%
    15:00 +23°C° 0 mm 2 mps 759 mmHg 50%
    16:00 +23°C° 0 mm 2 mps 758 mmHg 53%
    17:00 +21°C° 0 mm 1 mps 759 mmHg 59%
    18:00 +19°C° 0 mm 1 mps 759 mmHg 64%
    19:00 +16°C° 0 mm 1 mps 759 mmHg 70%
    20:00 +16°C° 0 mm 1 mps 759 mmHg 72%
    21:00 +15°C° 0 mm 1 mps 759 mmHg 73%
    22:00 +14°C° 0 mm 0 mps 759 mmHg 75%
    23:00 +14°C° 0 mm 1 mps 759 mmHg 76%
    Show more